[[{"header":{"parameterUnit":"m.s-1","parameterCategory":1,"la1":30.2991,"la2":30.254,"lo1":-89.0895,"lo2":-89.0444,"dy":0.0017,"dx":0.0017,"nx":28,"ny":28,"refTime":"2024-06-15T03:00:00:Z","depth":0,"parameterNumber":2,"parameterNumberName":"U-component_of_WINDS"},"data":[0,0,0,0,0,0,0,0,0,0,0,0,0,0,0,0,0,0,0,0,0,0,0,0,0,0,0,0,0,0,0,0,0,0,0,0,0,0,0,0,0,0,0,0,0,0,0,0,0,0,0,0,0,0,0,0,0,0,-1.6524,-1.6523,0,-1.651,-1.6509,-1.6509,-1.6464,-1.6463,-1.6462,-1.6461,-1.6447,-1.6448,-1.6448,0,0,0,0,0,0,0,0,0,0,0,0,0,-1.6515,-1.6515,-1.6524,-1.6523,-1.6523,-1.651,-1.6509,-1.6509,-1.6464,-1.6463,-1.6462,-1.6461,-1.6447,-1.6448,-1.6448,0,0,0,0,0,0,0,0,0,0,0,0,0,-1.6511,-1.6515,-1.6524,-1.6499,-1.6497,-1.651,-1.6509,-1.6509,-1.6465,-1.6463,-1.6462,-1.646,-1.6447,-1.6448,-1.6449,-1.6484,0,0,-1.6451,-1.6451,0,0,0,0,0,0,0,0,-1.6512,-1.6512,-1.6503,-1.6501,-1.6498,-1.6487,-1.6501,-1.6501,-1.6465,-1.6477,-1.6461,-1.6459,-1.6462,-1.6461,-1.6462,-1.6483,-1.6483,-1.6451,-1.6452,-1.6452,-1.6452,0,0,0,0,0,0,0,-1.6512,-1.6512,-1.6518,-1.6503,-1.65,-1.649,-1.6488,-1.6501,-1.6478,-1.6476,-1.6472,-1.6471,-1.646,-1.6461,-1.6461,-1.6482,-1.6451,-1.6452,-1.6452,-1.6453,-1.6536,-1.6538,0,0,0,0,0,0,-1.6515,-1.6513,-1.6518,-1.6518,-1.6501,-1.6491,-1.6489,-1.6492,-1.6478,-1.6474,-1.6473,-1.6469,-1.6461,-1.646,-1.6461,-1.6503,-1.6452,-1.6453,-1.6453,-1.6534,-1.6536,-1.6538,0,0,0,0,0,0,-1.6515,-1.6516,-1.6519,-1.6514,-1.6514,-1.6493,-1.6497,-1.6493,-1.6494,-1.6475,-1.6471,-1.6478,-1.6459,-1.6459,-1.6479,-1.6502,-1.6453,-1.6454,-1.6532,-1.6535,-1.6537,-1.6588,0,0,0,0,0,0,-1.6515,-1.6516,-1.6529,-1.6515,-1.6514,-1.6537,-1.6498,-1.6494,-1.6495,-1.6491,-1.6479,-1.6476,-1.6458,-1.6478,-1.648,-1.6503,-1.6455,-1.653,-1.6534,-1.6537,-1.6584,-1.6592,-1.6599,0,0,0,0,0,-1.6515,-1.6543,-1.6529,-1.653,-1.6529,-1.6538,-1.6538,-1.6517,-1.6497,-1.651,-1.6499,-1.6476,-1.65,-1.6481,-1.6482,-1.6505,-1.6529,-1.6533,-1.6536,-1.6581,-1.659,-1.6598,0,0,0,0,0,0,-1.6559,-1.654,-1.6525,-1.6549,-1.6546,-1.6531,-1.6546,-1.6528,-1.653,-1.6525,-1.65,-1.6498,-1.6522,-1.6515,-1.6495,-1.6541,-1.6511,-1.6515,-1.6544,-1.6553,-1.656,-1.6561,-1.6455,0,0,0,0,0,-1.6572,-1.658,-1.6564,-1.6587,-1.6586,-1.6567,-1.657,-1.6555,-1.655,-1.6548,-1.6538,-1.6535,-1.6542,-1.6547,-1.6552,-1.6583,-1.6582,-1.66,-1.6608,-1.6614,-1.6618,-1.6637,-1.6646,-1.6551,-1.6551,-1.6551,0,0,-1.6598,-1.6588,-1.6595,-1.6595,-1.6591,-1.6602,-1.6565,-1.6577,-1.6586,-1.655,-1.6568,-1.6562,-1.6557,-1.6583,-1.6595,-1.6579,-1.6644,-1.6619,-1.6623,-1.6624,-1.6642,-1.6651,-1.6659,-1.6554,-1.6553,-1.6553,0,0,-1.665,-1.6644,-1.6663,-1.666,-1.6655,-1.6642,-1.6647,-1.6636,-1.663,-1.6648,-1.6623,-1.6633,-1.6644,-1.6643,-1.6644,-1.6701,-1.6681,-1.6703,-1.6741,-1.676,-1.6768,-1.6774,-1.6797,-1.6805,-1.6707,-1.6708,-1.6708,0,-1.6683,-1.6698,-1.6676,-1.6691,-1.6693,-1.6662,-1.6683,-1.6681,-1.6677,-1.668,-1.6663,-1.6679,-1.6673,-1.6701,-1.6715,-1.6716,-1.6723,-1.6704,-1.6768,-1.6775,-1.678,-1.6802,-1.681,-1.6711,-1.671,-1.671,-1.671,0,-1.674,-1.6751,-1.6768,-1.6766,-1.677,-1.6787,-1.677,-1.6777,-1.6762,-1.6752,-1.6773,-1.6766,-1.6771,-1.6776,-1.6761,-1.6803,-1.6793,-1.6773,-1.6742,-1.6793,-1.6812,-1.682,-1.6715,-1.6714,-1.6713,-1.6712,0,0,-1.6818,-1.6806,-1.6813,-1.6813,-1.6806,-1.6815,-1.6833,-1.6838,-1.6845,-1.6845,-1.6861,-1.6873,-1.6855,-1.6856,-1.6841,-1.6858,-1.6907,-1.6835,-1.6835,-1.6851,-1.6955,-1.6972,-1.6981,-1.6894,-1.6895,-1.6896,-1.6956,0,-1.687,-1.6899,-1.6881,-1.6913,-1.6925,-1.6898,-1.6914,-1.6912,-1.6904,-1.6914,-1.6905,-1.6916,-1.689,-1.6891,-1.6906,-1.6898,-1.6928,-1.6893,-1.691,-1.691,-1.6912,-1.6991,-1.7007,-1.7064,-1.6964,-1.6965,-1.6966,0,-1.6933,-1.6937,-1.697,-1.6965,-1.6969,-1.6983,-1.6988,-1.6997,-1.6996,-1.699,-1.6993,-1.6975,-1.6994,-1.6964,-1.6991,-1.6968,-1.6975,-1.6972,-1.6974,-1.6975,-1.6941,-1.6996,-1.7081,-1.7091,-1.6977,-1.6976,-1.6975,0,-1.6989,-1.7002,-1.7025,-1.7026,-1.7019,-1.703,-1.7028,-1.7026,-1.7031,-1.7036,-1.704,-1.7047,-1.7051,-1.7058,-1.7043,-1.7022,-1.7074,-1.7042,-1.707,-1.7071,-1.7082,-1.7082,-1.7171,-1.7085,-1.7085,-1.7084,-1.7084,0,-1.7049,-1.7071,-1.7051,-1.7065,-1.709,-1.7071,-1.7096,-1.7091,-1.709,-1.7104,-1.7081,-1.7095,-1.7074,-1.7087,-1.7076,-1.7102,-1.7103,-1.71,-1.7097,-1.7103,-1.7103,-1.7106,-1.7102,-1.7087,-1.7086,-1.7086,-1.7085,0,-1.7115,-1.7102,-1.7126,-1.7118,-1.7117,-1.7136,-1.713,-1.7144,-1.7136,-1.7154,-1.7158,-1.7145,-1.7159,-1.7145,-1.7158,-1.7151,-1.7186,-1.7177,-1.7187,-1.7184,-1.7215,-1.7213,-1.731,-1.7323,-1.7227,-1.7228,-1.7229,0,-1.7155,-1.7172,-1.7167,-1.7175,-1.7174,-1.7187,-1.7193,-1.7176,-1.7183,-1.7185,-1.72,-1.7212,-1.722,-1.7244,-1.7237,-1.7248,-1.7239,-1.7273,-1.724,-1.7247,-1.7242,-1.7242,-1.7244,-1.7279,-1.7281,-1.7281,-1.7282,0,-1.7227,-1.7221,-1.723,-1.7238,-1.7246,-1.7252,-1.7256,-1.7264,-1.7246,-1.7257,-1.7271,-1.7278,-1.7292,-1.7306,-1.7314,-1.7313,-1.7296,-1.7293,-1.73,-1.7306,-1.7312,-1.7312,-1.7206,-1.729,-1.729,-1.7289,-1.7289,-1.7288,-1.7282,-1.7297,-1.7297,-1.7309,-1.7311,-1.7316,-1.7329,-1.7324,-1.7335,-1.7346,-1.7335,-1.7353,-1.7355,-1.7366,-1.7367,-1.7383,-1.7369,-1.7379,-1.7382,-1.7385,-1.739,-1.731,-1.7384,-1.7384,-1.7383,-1.7383,-1.7383,0,-1.7355,-1.7354,-1.7365,-1.7373,-1.7383,-1.7366,-1.737,-1.7381,-1.7397,-1.74,-1.741,-1.7428,-1.7442,-1.7437,-1.745,-1.7463,-1.7456,-1.7467,-1.7466,-1.7467,-1.7401,-1.7394,-1.7473,-1.7473,-1.7473,-1.7473,-1.7473,-1.7473,-1.7394,-1.7419,-1.7413,-1.744,-1.7439,-1.7457,-1.7461,-1.7467,-1.747,-1.7491,-1.7503,-1.75,-1.75,-1.7514,-1.7526,-1.7525,-1.7531,-1.7546,-1.7542,-1.748,-1.7471,-1.7463,-1.7456,-1.7547,-1.7547,-1.7607,-1.7607,-1.7608]},{"header":{"parameterUnit":"m.s-1","parameterCategory":1,"la1":30.2991,"la2":30.254,"lo1":-89.0895,"lo2":-89.0444,"dy":0.0017,"dx":0.0017,"nx":28,"ny":28,"refTime":"2024-06-15T03:00:00:Z","depth":0,"parameterNumber":3,"parameterNumberName":"V-component_of_WINDS"},"data":[0,0,0,0,0,0,0,0,0,0,0,0,0,0,0,0,0,0,0,0,0,0,0,0,0,0,0,0,0,0,0,0,0,0,0,0,0,0,0,0,0,0,0,0,0,0,0,0,0,0,0,0,0,0,0,0,0,0,3.4861,3.4862,0,3.4962,3.4963,3.4964,3.5028,3.5028,3.5029,3.5029,3.5127,3.5129,3.5132,0,0,0,0,0,0,0,0,0,0,0,0,0,3.4717,3.4719,3.4861,3.4862,3.4864,3.4962,3.4963,3.4965,3.5028,3.5029,3.5029,3.5029,3.5126,3.5129,3.5132,0,0,0,0,0,0,0,0,0,0,0,0,0,3.4794,3.472,3.4861,3.4907,3.4912,3.4962,3.4963,3.4965,3.5028,3.5029,3.5029,3.503,3.5126,3.5129,3.5132,3.5142,0,0,3.5142,3.5144,0,0,0,0,0,0,0,0,3.479,3.48,3.4899,3.4904,3.491,3.4983,3.4948,3.5024,3.5028,3.4984,3.5029,3.503,3.5078,3.5086,3.5103,3.5146,3.515,3.5143,3.5145,3.5146,3.5147,0,0,0,0,0,0,0,3.4785,3.4796,3.4901,3.4901,3.4907,3.4921,3.4933,3.4963,3.5027,3.4988,3.4993,3.5004,3.5081,3.51,3.5106,3.5152,3.5143,3.5146,3.5148,3.5149,3.5204,3.5204,0,0,0,0,0,0,3.4773,3.4791,3.4898,3.4904,3.485,3.4923,3.4936,3.4959,3.5027,3.5037,3.5003,3.5007,3.5094,3.5102,3.511,3.5123,3.5146,3.5149,3.5151,3.5205,3.5204,3.5204,0,0,0,0,0,0,3.4769,3.4782,3.4894,3.4849,3.4864,3.4925,3.495,3.4961,3.4979,3.5038,3.5049,3.5011,3.5095,3.5105,3.5133,3.5128,3.5151,3.5154,3.5206,3.5205,3.5204,3.5152,0,0,0,0,0,0,3.4765,3.478,3.4786,3.4849,3.4866,3.4917,3.495,3.4962,3.4986,3.4991,3.5048,3.5058,3.5096,3.5128,3.5136,3.5133,3.5157,3.5206,3.5205,3.5204,3.5154,3.5149,3.5145,0,0,0,0,0,3.476,3.4767,3.4786,3.4799,3.4875,3.4917,3.4927,3.4971,3.4985,3.499,3.5028,3.5057,3.5127,3.513,3.514,3.5138,3.5207,3.5206,3.5204,3.5156,3.515,3.5145,0,0,0,0,0,0,3.4701,3.4776,3.4798,3.4826,3.4865,3.4928,3.4936,3.4964,3.4998,3.5001,3.5053,3.5066,3.5088,3.5116,3.5118,3.5149,3.517,3.5171,3.513,3.5125,3.512,3.5112,3.5159,0,0,0,0,0,3.4692,3.4721,3.4784,3.4803,3.4821,3.4875,3.4895,3.4925,3.4967,3.4983,3.5023,3.506,3.509,3.5109,3.5141,3.5159,3.517,3.5162,3.5157,3.5153,3.5152,3.5161,3.5157,3.52,3.52,3.52,0,0,3.4672,3.4717,3.4732,3.4792,3.4826,3.4852,3.4888,3.4916,3.4935,3.4987,3.5015,3.5045,3.509,3.5113,3.5124,3.5137,3.5143,3.5151,3.5148,3.515,3.5159,3.5155,3.5152,3.5199,3.5199,3.5199,0,0,3.465,3.4688,3.4707,3.4739,3.479,3.4825,3.4829,3.4887,3.4909,3.494,3.4978,3.5001,3.5053,3.5082,3.5104,3.509,3.5117,3.5099,3.5074,3.5082,3.5079,3.5076,3.5069,3.5066,3.5099,3.5099,3.5098,0,3.4619,3.4663,3.4712,3.4737,3.4761,3.4809,3.4827,3.4856,3.4913,3.4927,3.494,3.5005,3.5039,3.5067,3.5064,3.5081,3.5085,3.5092,3.5076,3.5074,3.5072,3.5065,3.5063,3.5096,3.5096,3.5096,3.5097,0,3.4621,3.4651,3.4659,3.4714,3.4739,3.476,3.481,3.4828,3.4856,3.4889,3.4917,3.4959,3.4999,3.5008,3.5036,3.504,3.5045,3.5067,3.5089,3.5064,3.5059,3.5057,3.5092,3.5093,3.5094,3.5094,0,0,3.4567,3.4647,3.4649,3.4673,3.4731,3.4754,3.4775,3.4815,3.4829,3.4867,3.4884,3.4926,3.4945,3.497,3.5001,3.5008,3.4991,3.5028,3.5029,3.5018,3.4995,3.4977,3.4974,3.5009,3.5009,3.5009,3.499,0,3.4552,3.4596,3.4639,3.4665,3.4691,3.4736,3.4755,3.4791,3.4821,3.4846,3.488,3.4908,3.4932,3.4947,3.4956,3.4991,3.4987,3.4993,3.5024,3.5024,3.501,3.4972,3.4954,3.4935,3.4989,3.4989,3.4988,0,3.4542,3.4577,3.4606,3.4659,3.4672,3.4688,3.4726,3.475,3.4791,3.4812,3.4839,3.4871,3.4893,3.4913,3.4942,3.4946,3.4961,3.4979,3.4979,3.4983,3.5004,3.4972,3.493,3.4926,3.4986,3.4986,3.4986,0,3.4496,3.4551,3.4575,3.4595,3.4658,3.4667,3.4694,3.4735,3.4755,3.4788,3.4801,3.4835,3.4854,3.4879,3.4918,3.493,3.4942,3.4966,3.4959,3.4957,3.4958,3.4958,3.4916,3.4971,3.4971,3.4971,3.4971,0,3.4475,3.449,3.4555,3.457,3.4588,3.4636,3.4651,3.4681,3.4717,3.4736,3.4777,3.4794,3.4846,3.4868,3.4899,3.4917,3.4926,3.4942,3.495,3.4937,3.4935,3.4947,3.4948,3.497,3.497,3.497,3.497,0,3.4427,3.4472,3.45,3.4557,3.4571,3.4582,3.4629,3.4643,3.4676,3.47,3.4708,3.4758,3.4786,3.4828,3.4869,3.4889,3.4901,3.4915,3.4888,3.4892,3.4881,3.4881,3.4844,3.4841,3.4899,3.4899,3.4898,0,3.441,3.4423,3.4481,3.4497,3.4522,3.4548,3.4568,3.4615,3.4634,3.468,3.4688,3.4719,3.4747,3.4788,3.4827,3.4858,3.4871,3.4856,3.4876,3.4862,3.4868,3.4866,3.4866,3.4851,3.485,3.485,3.4849,0,3.4374,3.4395,3.4424,3.4459,3.4483,3.4513,3.4545,3.4555,3.4608,3.4627,3.4657,3.4678,3.4719,3.4748,3.4783,3.4808,3.4836,3.4843,3.4842,3.4829,3.4811,3.4818,3.4873,3.4843,3.4844,3.4844,3.4844,3.4845,3.434,3.4353,3.4394,3.4424,3.4453,3.4481,3.4496,3.453,3.4556,3.4594,3.4619,3.4646,3.4683,3.4733,3.4756,3.4776,3.4789,3.4789,3.4788,3.4787,3.4781,3.4809,3.4783,3.4784,3.4784,3.4784,3.4784,0,3.4304,3.4333,3.436,3.4403,3.4425,3.4451,3.4487,3.4503,3.4527,3.456,3.4586,3.4617,3.4645,3.4686,3.4716,3.4724,3.4737,3.473,3.4729,3.4734,3.477,3.4766,3.4719,3.4719,3.4719,3.4719,3.4719,3.4719,3.4288,3.431,3.4335,3.437,3.4398,3.4425,3.4443,3.4468,3.4494,3.4528,3.4552,3.4578,3.4613,3.4646,3.4671,3.4682,3.469,3.4679,3.4693,3.4726,3.4732,3.4737,3.4734,3.4681,3.4681,3.4655,3.4655,3.4655]}]]